Content
SEND FEEDBACK

Daily
Averages
Monthly
Summary
United States of America

NEW YORK - CENTRAL PARK, NEW YORK


Home > North America > United States > New York
Elevation: 14 feet     Latitude: 40 47N     Longitude: 073 58W

WEATHER
 
SELECT A DAY
Number of Records: 148,086;   Date Range: 11/1/95 - 7/26/14
 
SHARE

PRINT THIS DATA

[ ← Previous Day ]
WEATHER ALMANAC - FEBRUARY 23, 2013
[ Next Day → ]
[ °C ]   °F
Weather ElementAverageHighLow
Temperature38 °F42.1 °F (2:51 pm)36 °F (5:51 am)
Dewpoint35.8 °F39.9 °F (1:51 pm)33.1 °F (1:44 am)
Humidity92 %96 % (1:51 pm)86 % (1:44 am)
Barometer30.03 in30.27 in (1:44 am)29.81 in (11:51 pm)
Wind Speed8.9 mph16.1 mph (6:51 pm)
Wind Gust27.6 mph (9:51 pm)
Weather ElementAverage
Visibility4.2 mi
Wind DirectionENE (59.7 °)

Weather ElementTotal
Precipitation0.36 in
Heating Degree Days26 (Base 65)
Averaged from 29 records on February 23, 2013
WEATHER CONDITIONS BREAKOUT
WIND DIRECTION BREAKOUT
WEATHER BY HOUR - FEBRUARY 23, 2013
[ °C ]   °F
Local TimeTemperatureDewpointHumidityBarometerVisibilityWind DirectionWind SpeedGust SpeedPrecipitationEventsConditions
1:44 AM37.0 °F33.1 °F86 %30.27 in9.0 miNorthOvercast
1:51 AM37.0 °F33.1 °F86 %30.25 in9.0 miVariable5.8 mphOvercast
2:51 AM37.0 °F33.1 °F86 %30.21 in6.0 miVariable5.8 mphOvercast
3:51 AM37.0 °F34.0 °F89 %30.19 in10.0 miVariable6.9 mphOvercast
4:51 AM37.0 °F34.0 °F89 %30.19 in6.0 miVariable3.5 mphOvercast
5:51 AM36.0 °F34.0 °F93 %30.17 in4.0 miEast (80°)5.8 mphOvercast
6:51 AM36.0 °F34.0 °F93 %30.16 in4.0 miENE (70°)6.9 mphOvercast
7:51 AM37.0 °F35.1 °F93 %30.15 in4.0 miEast (90°)5.8 mphOvercast
8:51 AM37.0 °F35.1 °F93 %30.13 in2.5 miEast (80°)5.8 mphOvercast
9:51 AM37.9 °F36.0 °F93 %30.09 in2.0 miENE (70°)5.8 mph0.00 inOvercast
10:03 AM37.9 °F36.0 °F93 %30.11 in1.5 miENE (70°)8.1 mphOvercast
10:51 AM39.0 °F37.0 °F93 %30.08 in1.5 miEast (80°)3.5 mph0.02 inRainLight Rain
11:51 AM39.9 °F37.9 °F93 %30.05 in1.5 miENE (70°)4.6 mph0.03 inRainLight Rain
12:51 PM41.0 °F39.0 °F93 %30.01 in1.0 miENE (70°)5.8 mph0.02 inRainLight Rain
1:51 PM41.0 °F39.9 °F96 %29.99 in1.2 miENE (60°)6.9 mph0.02 inRainLight Rain
2:51 PM42.1 °F39.9 °F92 %29.96 in1.2 miENE (60°)10.4 mph0.07 inRainRain
3:25 PM41.0 °F39.0 °F93 %29.99 in2.0 miENE (60°)9.2 mph0.03 inRainLight Rain
3:51 PM39.9 °F37.9 °F93 %29.96 in2.0 miEast (80°)9.2 mph0.04 inRainLight Rain
4:30 PM39.9 °F37.9 °F93 %29.96 in3.0 miENE (70°)8.1 mph0.02 inRainLight Rain
4:38 PM39.0 °F37.9 °F96 %29.97 in2.0 miEast (80°)10.4 mph0.03 inRainLight Rain
4:51 PM39.0 °F37.0 °F93 %29.94 in2.5 miENE (70°)10.4 mph0.03 inRainLight Rain
5:34 PM37.9 °F36.0 °F93 %29.95 in3.0 miEast (80°)12.7 mph21.9 mph0.02 inRainLight Rain
5:51 PM37.0 °F35.1 °F93 %29.92 in4.0 miENE (70°)15.0 mph25.3 mph0.03 inOvercast
6:51 PM37.0 °F35.1 °F93 %29.92 in6.0 miEast (80°)16.1 mph24.2 mph0.00 inOvercast
7:51 PM36.0 °F34.0 °F93 %29.91 in7.0 miEast (80°)12.7 mph26.5 mphOvercast
8:51 PM36.0 °F34.0 °F93 %29.88 in10.0 miENE (70°)13.8 mph24.2 mphOvercast
9:51 PM36.0 °F34.0 °F93 %29.85 in8.0 miEast (80°)15.0 mph27.6 mphOvercast
10:51 PM37.0 °F34.0 °F89 %29.83 in4.0 miENE (60°)11.5 mph19.6 mphOvercast
11:51 PM37.0 °F35.1 °F93 %29.81 in3.0 miNE (50°)12.7 mphOvercast
Hourly data recorded from KNYC, located miles away from New York - Central Park, New York







STORIES FROM OUR PARTNERS